[Show "Revision History"] [Show "General Page Infos"] [Show "Page hits and edits"]

Revision History

Showing page edit history entries from 1 to 34 out of 34 entries total. (5 | 10 | 25 | 50 | 100 | 200 items per page)

# Date Size Editor Comment Action
35 2009-11-27 16:37:25 17455 to previous BenDewey   view
34 2009-11-27 16:33:18 17534 to previous BenDewey   view
33 2009-11-25 18:12:39 16573 to previous NickHauenstein Stonehenge project report view
32 2009-11-18 22:50:01 15050 to previous ThorstenScherler   view
31 2009-11-16 19:18:10 14601 to previous NoelBergman closed view
30 2009-11-16 19:17:41 14602 to previous NoelBergman closed view
29 2009-11-16 19:17:09 14600 to previous NoelBergman closed view
28 2009-11-14 18:22:14 14655 to previous GregStein note that the software grant has been recorded view
27 2009-11-13 18:50:50 14790 to previous GregStein update svn report about account requests; sander said to sign his name view
26 2009-11-13 02:37:15 14950 to previous JukkaZitting Comments on Bluesky and Pivot view
25 2009-11-12 22:40:08 14370 to previous GregStein expand the Subversion podling report view
24 2009-11-12 16:33:58 13536 to previous DanielRall   view
23 2009-11-12 16:33:35 13523 to previous CMichaelPilato   view
22 2009-11-12 16:17:18 13522 to previous GregStein add Subversion report view
21 2009-11-12 02:46:56 12244 to previous KevanMiller   view
20 2009-11-11 22:07:01 8194 to previous DavidSeanTaylor   view
19 2009-11-11 21:42:31 7189 to previous DavanumSrinivas   view
18 2009-11-11 19:56:50 7161 to previous KevanMiller   view
17 2009-11-11 16:21:36 7148 to previous KevanMiller   view
16 2009-11-11 13:53:30 6269 to previous AteDouma   view
15 2009-11-11 07:21:00 6264 to previous ShivaKumar Updating Apache Wink report after discussing it over wink-dev list. view
14 2009-11-10 21:11:31 6155 to previous JesseRamos   view
13 2009-11-09 18:14:03 5395 to previous RossGardler Add some details about Wookie Meetups view
12 2009-11-09 16:49:47 5080 to previous lresende   view
11 2009-11-09 16:45:07 4316 to previous lresende   view
10 2009-11-09 14:21:09 3696 to previous GregBrown   view
9 2009-11-09 10:49:09 5235 to previous ivysummer   view
8 2009-11-07 08:45:23 4498 to previous NiclasHedhman   view
7 2009-11-06 17:46:27 4482 to previous GregBrown   view
6 2009-11-02 06:44:19 1274 to previous AndreasLehmkuehler removed PDFBox from schedule view
4 2009-10-06 06:50:10 891 to previous DavidCrossley Improve the template. view
3 2009-09-20 23:06:18 646 to previous localhost converted to 1.6 markup view
2 2009-09-01 02:58:34 646 to previous DavidCrossley remember the Monthly section view
1 2009-06-25 01:21:39 605 DavidCrossley initial page view